Flag for Brazil Weather past 2 weeks in Maceió, Alagoas, Brazil

Now
90 °F

Scattered clouds.


Feels Like: 95 °F
Forecast: 76 / 86 °F
Wind: 12 mph from East

Location: Maceio Aeroporto

Current Time: Apr 27, 2015 at 1:05:08 PM

Latest Report: Apr 27, 2015 at 12:00 PM


Visibility: N/A

Pressure: 29.92 "Hg

Humidity: 52%

Dew point: 70 °F

Location of MaceióLocation

Historic Weather in Maceió — Graph

°F

Maceió temperature yesterday

Maximum temperature yesterday: 91 °F (at 1:00 PM)
Minimum temperature yesterday: 73 °F (at 3:00 AM)
Average temperature yesterday: 81 °F

Past Weeks' High & Low Weather Summary

 TemperatureHumidityPressure
High91 °F (Apr 17, 2:00 PM)100% (Apr 13, 1:00 AM)30.01 "Hg (Apr 13, 1:00 AM)
Low68 °F (Apr 14, 4:00 AM)40% (Apr 18, 4:00 PM)29.80 "Hg (Apr 22, 5:00 AM)
Average79 °F78%29.93 "Hg
* Reported Apr 12 11:00 AM — Apr 27 11:00 AM, Maceió, Weather by CustomWeather, © 2015

Note: Actual official high and low records may vary slightly from our data, if they occured in-between our weather recording intervals... More about our weather records

Advertising

Maceió weather history for previous 24 hours

 ConditionsComfort  
Time TempWeatherWind HumidityBarometerVisibility
11:00 AM
Mon, Apr 27
88 °FPartly sunny.10 mph55%29.95 "HgN/A
10:00 AM88 °FPartly sunny.9 mph59%29.95 "HgN/A
9:00 AM84 °FPartly sunny.9 mph66%29.98 "HgN/A
8:00 AM82 °FScattered clouds.8 mph74%29.95 "HgN/A
7:00 AM79 °FPassing clouds.7 mph84%29.95 "HgN/A
6:00 AM75 °FScattered clouds.3 mph94%29.92 "HgN/A
5:00 AM73 °FPassing clouds.3 mph100%29.92 "HgN/A
4:00 AM73 °FPassing clouds.3 mph100%29.92 "HgN/A
3:00 AM73 °FPassing clouds.3 mph100%29.92 "HgN/A
2:00 AM73 °FPassing clouds.3 mph100%29.95 "HgN/A
1:00 AM73 °FClear.3 mph100%29.95 "Hg10 mi
12:00 AM75 °FClear.6 mph94%29.95 "Hg10 mi
11:00 PM
Sun, Apr 26
77 °FClear.6 mph89%29.98 "Hg10 mi
10:00 PM77 °FClear.7 mph89%29.98 "Hg10 mi
9:00 PM77 °FClear.8 mph89%29.95 "Hg10 mi
8:00 PM77 °FClear.8 mph89%29.95 "Hg10 mi
7:00 PM79 °FClear.8 mph79%29.95 "Hg10 mi
6:00 PM81 °FClear.9 mph74%29.92 "Hg10 mi
5:00 PM84 °FSunny.12 mph62%29.89 "Hg10 mi
4:00 PM88 °FPassing clouds.16 mph52%29.89 "HgN/A
3:00 PM90 °FScattered clouds.13 mph52%29.86 "HgN/A
2:00 PM90 °FScattered clouds.16 mph52%29.89 "HgN/A
1:00 PM91 °FScattered clouds.12 mph49%29.89 "HgN/A
Weather by CustomWeather, © 2015

See weather overviewHow to use our weather pages